Theta_e
332 332 330 331 330 327 329 327 324 327 330 326 321 322 327 334 345 349 347 351 353 352 354 353 353 356 355 354 354 354 356 358 359 359 358 357 358 357 359 361 359 357 356 355 350 346 345 346 348 351 353 352 352 352 353 353 353 354 355 354 352 354 355
327 329 329 330 331 331 328 320 323 330 329 326 325 323 328 341 350 349 347 351 352 351 354 355 354 357 357 354 353 352 354 357 359 358 356 355 356 356 358 359 359 357 356 355 355 353 348 346 347 351 353 353 352 352 353 352 352 354 355 354 354 355 355
324 328 330 327 327 329 327 321 327 332 323 323 325 321 328 344 351 350 349 350 350 350 352 354 355 358 356 352 351 351 352 356 358 358 355 354 354 355 358 360 359 357 356 355 355 355 352 350 349 351 353 354 353 352 352 353 352 352 354 354 355 356 356
322 328 328 322 322 325 326 327 331 329 322 322 322 320 330 345 349 349 349 349 350 353 356 356 357 357 356 353 351 350 350 352 355 356 355 353 353 354 356 358 357 356 356 355 352 353 353 353 352 353 353 355 355 354 354 354 354 354 355 356 355 355 355
319 323 325 324 323 323 323 324 321 321 323 323 320 321 329 341 346 346 348 349 350 353 356 357 356 355 352 352 350 348 349 349 351 353 354 353 352 352 353 354 353 354 356 355 352 352 353 352 353 353 354 356 357 356 356 356 356 355 357 359 358 356 356
314 320 326 326 327 326 324 323 320 320 322 319 317 322 329 337 341 341 345 350 352 352 351 352 353 351 347 347 347 348 348 348 348 349 350 351 352 350 349 350 351 353 355 355 353 354 353 351 352 352 353 357 358 358 357 357 357 357 357 359 360 359 359
319 321 325 323 324 326 325 325 325 325 324 321 322 329 336 339 340 340 343 349 353 352 349 350 352 348 343 343 344 344 345 344 344 345 345 346 348 348 347 347 348 350 352 353 354 354 353 352 352 351 352 355 357 357 357 358 359 358 358 359 360 361 361
326 320 324 329 329 325 323 324 326 326 323 326 331 337 343 344 342 343 347 350 353 352 349 351 353 346 340 341 341 341 341 339 340 343 342 341 344 346 346 346 347 348 349 351 352 354 354 354 353 354 353 353 354 354 353 355 357 357 358 358 359 360 361
320 317 319 325 330 326 323 323 325 326 326 332 338 339 345 347 341 342 349 350 351 351 348 349 352 347 340 339 339 339 339 338 338 341 343 341 340 341 344 346 346 346 347 347 349 350 351 353 354 354 353 352 352 352 351 351 352 353 355 356 357 357 358
319 319 319 321 325 325 323 323 323 324 327 334 339 339 343 346 342 343 348 350 351 351 347 349 352 348 341 339 340 338 338 338 337 339 341 340 339 339 340 344 345 345 345 345 347 348 348 349 350 351 352 353 353 352 352 351 350 350 352 354 355 356 356
325 325 328 331 328 320 317 319 321 322 327 334 339 340 343 345 344 345 346 347 350 349 346 349 351 346 341 339 339 338 338 338 337 337 338 337 338 337 338 341 342 341 342 343 344 346 347 346 348 349 352 354 354 353 353 353 351 350 351 352 353 354 354
329 327 327 326 323 317 315 315 317 322 327 334 338 338 340 343 344 347 347 346 348 347 346 348 347 344 343 340 338 338 337 337 337 337 337 336 336 335 336 339 340 338 338 339 340 343 345 346 346 347 347 349 352 352 352 352 351 351 350 351 352 353 352
325 325 320 320 321 318 317 317 318 324 331 336 338 338 343 347 346 346 347 346 346 345 344 345 342 342 343 341 337 336 336 336 337 336 336 335 335 335 335 336 337 337 337 337 337 339 342 344 346 347 347 347 347 349 351 352 352 351 351 352 352 352 350
321 321 322 323 320 316 317 318 319 326 335 341 341 340 344 349 347 344 345 346 345 343 342 342 340 339 340 338 335 335 335 335 336 335 335 334 334 334 334 334 335 335 335 335 335 334 336 339 342 345 347 347 346 346 348 349 349 350 351 351 352 353 353
320 322 324 320 320 319 319 319 319 326 338 344 344 342 343 345 344 342 343 344 343 341 338 338 336 337 338 338 336 335 334 335 335 334 333 333 333 332 332 332 333 333 333 333 334 333 334 335 337 341 345 347 344 344 344 346 346 345 346 347 347 350 352
319 320 320 316 319 320 318 322 321 324 335 343 344 344 343 343 342 341 341 342 341 339 335 334 335 335 336 337 336 335 334 334 333 333 333 332 332 331 331 331 332 332 332 331 332 333 335 334 335 337 341 344 342 341 341 342 342 342 340 341 342 343 346
320 319 320 324 327 322 319 324 322 319 331 343 343 343 343 341 340 340 340 340 339 336 334 334 333 333 335 335 334 334 333 332 332 332 331 331 330 330 331 331 331 330 330 330 330 331 334 335 335 335 337 340 341 340 339 339 339 339 339 339 339 340 341
322 322 329 335 332 322 321 326 323 321 334 345 344 342 342 340 339 340 340 339 337 336 334 333 333 333 334 334 333 333 332 332 332 331 331 330 330 330 331 330 327 326 328 328 327 328 333 334 334 333 335 337 337 336 335 335 337 337 337 338 338 339 340
324 328 334 329 321 321 327 328 325 328 337 342 342 342 341 340 340 339 338 338 337 337 335 333 333 332 332 332 333 333 331 330 330 330 330 329 329 331 332 330 325 324 327 328 326 329 333 334 332 332 333 335 336 335 333 333 333 333 334 334 335 336 338
324 329 332 324 318 325 335 332 325 330 339 340 340 342 339 338 338 337 338 337 337 336 334 332 332 331 330 330 331 331 331 330 329 329 328 327 328 329 328 326 324 324 326 326 326 327 330 330 330 330 330 332 334 335 335 334 333 332 332 332 332 334 336
326 325 328 329 326 324 331 333 324 325 336 340 341 341 338 335 336 336 337 337 335 334 335 334 332 330 328 329 329 327 328 328 327 327 327 325 325 324 323 322 324 324 325 325 325 326 326 326 327 327 327 328 331 333 334 333 333 333 332 332 331 331 333
332 331 330 331 328 322 329 336 325 320 332 338 339 340 337 336 335 334 335 336 335 334 335 334 332 331 330 330 327 324 323 324 323 323 323 322 322 322 322 323 323 323 323 323 324 325 325 325 326 326 325 325 327 329 330 329 331 332 332 332 332 331 332
331 331 328 327 326 325 333 338 326 318 326 332 336 341 340 337 334 332 334 335 334 334 334 333 332 333 333 332 328 324 321 321 320 320 320 320 321 322 322 322 322 322 322 322 323 323 323 324 325 325 326 325 326 327 327 326 327 328 329 331 332 331 332
328 328 325 327 328 327 330 331 323 318 321 326 333 338 340 339 335 333 333 334 334 334 333 333 333 334 335 333 328 323 320 320 320 320 320 320 322 322 322 321 321 321 321 321 322 322 323 323 324 324 325 326 326 326 326 325 325 325 325 327 327 327 330
326 326 325 327 329 327 326 324 323 325 325 323 326 331 335 335 333 333 333 333 334 334 332 333 334 332 330 329 324 321 320 320 320 319 321 322 322 321 321 321 320 320 320 321 320 321 321 321 322 323 323 324 324 325 324 324 324 325 324 325 325 325 329
321 326 330 329 326 325 324 323 327 334 329 321 323 328 331 329 327 328 331 330 331 330 329 329 329 325 322 322 321 321 321 320 319 319 320 321 321 320 320 320 319 319 319 320 320 319 320 320 320 321 321 322 322 322 322 322 323 323 324 324 325 324 326
326 330 332 331 329 328 327 325 329 334 332 330 333 331 327 325 325 325 326 326 325 325 323 322 322 321 320 321 321 321 321 319 319 319 319 319 319 319 319 318 318 318 319 319 319 319 319 319 319 320 320 320 321 321 320 321 322 322 323 323 324 324 324
331 332 330 332 336 336 333 333 332 331 333 338 337 329 324 324 324 323 324 323 321 320 320 320 320 320 320 321 321 321 321 320 318 317 318 318 318 317 317 318 317 318 318 319 319 318 318 318 318 319 319 319 320 319 319 320 320 321 322 322 323 323 323
331 336 334 336 338 334 331 334 334 332 333 334 331 326 325 325 323 322 323 322 319 318 318 319 319 319 320 321 321 321 321 320 317 317 317 318 317 317 317 317 317 317 318 318 318 317 318 318 318 318 318 318 318 317 317 318 318 319 320 321 322 323 324
330 334 332 331 333 330 328 330 329 328 330 330 328 326 326 324 323 321 321 320 319 318 318 319 319 319 319 320 320 320 321 318 316 317 317 317 317 317 317 317 317 317 317 317 317 317 317 317 317 317 316 316 316 316 316 317 318 318 318 319 320 321 322
329 329 328 329 330 329 328 328 326 326 327 329 331 331 328 326 325 322 320 321 320 318 317 319 319 318 318 320 320 320 321 319 315 316 316 316 317 317 316 317 317 316 316 316 316 317 316 315 316 315 315 315 314 315 316 317 318 319 319 319 319 319 319
326 325 328 332 330 327 328 327 325 325 325 328 332 332 329 328 326 320 318 320 320 320 320 319 319 319 318 319 320 321 320 317 315 315 316 316 317 316 316 316 315 314 315 316 316 316 315 314 314 313 314 314 315 315 316 317 318 319 319 320 320 320 319
326 327 331 332 328 325 327 329 329 326 324 326 331 330 326 326 325 322 319 318 317 318 318 317 319 320 320 318 318 319 317 314 314 315 316 316 316 315 315 314 314 314 315 315 315 315 314 314 313 313 314 315 315 315 316 317 317 317 318 319 320 320 320
330 333 333 331 329 325 324 327 331 331 326 323 326 327 326 325 325 324 323 320 317 316 315 315 318 322 321 318 316 316 316 314 314 315 316 315 315 314 313 314 314 314 315 314 314 314 313 313 313 314 315 314 313 313 315 315 315 315 316 317 318 319 320
334 333 331 330 332 330 324 324 329 332 329 326 325 325 326 324 321 321 323 322 321 320 317 314 316 319 318 316 315 315 315 315 315 315 315 315 314 313 313 314 314 314 313 313 313 313 312 313 314 314 314 313 312 313 313 313 313 313 315 315 317 319 320
333 332 332 332 332 329 325 326 328 328 326 327 328 328 328 326 320 317 319 320 320 323 320 315 315 316 315 315 316 315 314 314 314 314 314 314 313 313 313 314 313 313 313 312 312 312 313 313 314 313 312 312 312 311 311 311 311 312 313 315 316 317 319
330 330 332 332 329 328 327 327 328 325 320 322 327 329 327 326 322 318 317 316 315 317 318 316 315 316 315 314 315 315 314 314 314 313 313 312 312 313 313 313 313 312 312 312 312 312 313 314 313 312 312 312 311 310 309 309 310 311 312 313 315 316 319
Wind_Speed
3 6 5 4 5 2 1 1 3 4 4 3 3 2 5 7 5 2 2 3 2 3 3 6 4 7 8 7 7 5 3 4 6 5 4 5 6 6 5 5 1 7 10 1 10 16 22 26 27 30 33 35 35 34 34 34 32 31 31 31 30 29 28
2 3 6 5 4 4 4 1 3 3 1 2 3 3 4 4 4 2 1 3 4 3 1 1 2 8 8 7 8 8 6 5 7 7 6 6 7 7 5 4 4 3 5 5 9 12 17 21 23 29 35 37 37 37 36 35 33 32 31 31 30 30 29
1 3 6 3 3 3 5 3 1 2 2 0 1 2 3 3 3 2 1 2 1 1 1 3 4 7 9 8 8 7 7 7 7 8 9 8 8 6 5 4 2 1 3 5 9 14 16 17 17 23 30 33 35 36 36 36 35 35 34 32 31 30 29
2 4 4 3 3 4 3 2 3 2 3 3 1 1 4 4 4 5 1 2 1 1 1 3 5 7 10 8 7 8 8 8 7 7 9 9 8 6 4 4 4 5 5 4 6 9 14 16 15 18 24 25 28 32 33 32 31 30 30 29 30 30 29
3 2 0 5 4 1 2 3 2 1 1 0 1 1 2 5 4 4 4 1 2 2 0 2 2 5 9 8 6 7 8 8 8 6 7 8 7 7 5 5 6 7 7 6 7 10 12 15 16 17 21 23 23 26 27 28 27 27 27 26 27 28 28
3 3 5 5 7 5 4 3 2 3 2 0 1 2 2 3 4 4 5 4 1 1 3 3 1 3 9 9 7 7 7 7 8 7 8 8 7 7 7 7 7 7 9 11 12 12 11 12 15 16 19 21 23 24 26 28 29 30 30 28 26 26 26
2 4 3 3 5 4 5 3 1 2 4 3 3 3 2 3 5 4 4 4 3 3 2 1 1 4 10 8 7 9 7 7 8 8 8 9 7 8 9 8 8 9 12 15 16 14 13 13 14 14 15 17 18 17 18 22 28 30 30 28 26 25 26
4 4 4 5 5 5 4 1 2 0 2 4 4 4 3 4 4 4 4 3 2 2 0 1 0 6 11 8 7 9 9 7 8 7 8 9 9 8 8 8 9 11 12 15 15 13 11 12 12 13 13 13 13 12 10 11 18 24 27 27 23 22 25
4 5 6 6 6 4 2 1 3 3 2 8 7 3 3 3 1 3 5 4 2 2 4 2 1 6 10 8 7 8 9 8 7 7 7 8 9 8 8 8 9 11 12 11 13 14 12 12 12 13 13 12 12 12 11 10 12 15 20 23 22 19 21
3 2 1 2 3 2 1 1 2 3 4 7 6 4 4 3 3 3 4 5 5 4 6 4 2 6 10 9 8 8 7 7 7 7 7 7 8 9 9 8 8 10 10 11 12 15 16 16 15 14 13 13 13 12 12 12 11 11 13 16 20 19 19
6 6 4 4 3 1 2 3 4 5 5 6 6 5 3 4 6 5 2 9 13 8 8 6 4 7 10 9 9 9 7 7 8 7 9 10 9 9 9 9 8 8 9 10 12 16 18 19 19 18 16 15 15 16 14 15 14 11 10 10 13 16 17
5 6 1 3 4 5 6 7 8 7 6 7 6 5 6 7 7 5 3 11 16 12 9 8 8 8 9 8 9 10 8 8 9 9 10 12 11 10 9 9 9 9 9 10 13 16 18 19 19 19 20 17 16 17 15 13 13 13 10 8 7 9 12
2 3 5 7 7 5 6 9 9 7 6 8 7 6 7 6 7 8 9 10 13 12 11 10 9 10 10 9 9 9 8 9 10 11 12 12 12 11 10 9 8 8 8 10 14 16 16 18 18 17 19 18 15 15 16 14 12 10 9 9 7 6 8
5 6 7 7 7 7 8 9 8 7 8 8 8 7 5 7 11 14 13 10 9 8 9 10 9 8 9 9 9 9 8 9 11 12 13 12 11 11 10 9 8 7 8 11 16 18 18 18 18 16 17 17 15 13 13 14 13 11 9 9 8 7 7
5 7 8 7 7 8 9 10 10 9 11 10 10 10 11 13 14 14 15 12 6 4 6 9 8 8 8 9 9 9 8 9 11 12 12 12 11 10 9 9 8 8 10 13 17 18 18 18 18 18 18 18 18 15 13 12 14 14 14 13 13 14 13
3 6 8 7 7 9 10 10 10 7 7 8 8 10 12 15 16 15 13 10 5 5 8 10 10 11 11 11 10 9 8 9 12 12 12 11 11 10 8 7 8 8 10 12 15 16 17 18 19 19 18 18 18 18 16 15 15 16 17 16 15 15 14
3 6 7 5 6 7 5 5 5 4 3 7 7 8 12 17 19 14 10 8 7 9 12 12 12 13 12 10 9 9 9 9 11 12 11 11 10 9 7 6 7 7 9 12 15 15 16 19 20 20 20 19 18 18 18 17 18 18 18 17 16 15 13
2 7 6 5 6 4 3 6 5 4 7 10 9 10 12 14 12 9 8 9 9 9 12 14 13 11 10 9 8 8 8 9 10 11 11 10 10 8 7 6 7 9 11 14 17 18 17 18 20 21 22 21 19 19 19 18 18 17 16 16 17 15 14
1 4 5 6 3 2 6 6 4 4 11 13 12 9 8 10 13 15 14 12 10 9 11 12 12 11 10 8 7 7 8 9 10 11 10 10 10 8 6 6 8 11 13 15 19 20 19 18 19 20 20 20 19 19 19 19 19 18 17 17 16 15 15
1 3 4 3 3 5 5 7 7 5 9 14 14 8 5 6 14 16 14 11 11 11 11 10 11 11 10 8 6 6 7 8 9 10 9 9 9 9 8 8 11 14 16 18 20 22 21 20 20 19 18 17 17 16 16 17 18 18 18 19 18 16 16
2 2 2 1 1 2 5 5 4 2 3 9 11 7 3 3 9 12 11 11 11 11 11 10 9 10 11 8 5 5 6 7 9 11 11 11 11 12 14 16 18 19 20 22 23 23 22 21 19 17 15 14 15 16 15 15 15 16 17 18 18 17 16
2 4 3 3 2 0 3 6 6 3 3 6 9 9 4 1 6 11 12 12 12 11 11 11 9 9 9 7 4 5 7 9 11 13 14 15 15 16 19 22 22 22 22 23 23 22 22 20 18 16 14 13 15 16 15 15 15 14 15 15 15 16 16
3 4 3 1 2 3 5 7 7 4 4 7 8 8 2 4 5 11 13 12 12 12 11 11 10 8 7 5 4 4 7 11 12 12 13 16 19 20 22 23 22 21 21 21 22 21 20 19 16 14 13 13 14 15 15 15 16 16 16 14 13 14 13
2 3 3 1 2 3 4 5 6 5 1 7 9 5 3 5 4 8 12 14 12 11 10 9 7 6 6 7 6 6 9 12 14 14 14 17 20 21 22 21 20 19 19 20 21 20 19 17 15 13 13 13 15 16 14 14 16 18 17 15 14 14 11
2 2 3 0 1 2 3 4 5 5 2 7 6 4 6 4 3 6 9 12 11 10 10 7 4 3 6 8 7 8 11 12 12 16 19 20 21 21 21 19 18 18 17 18 18 18 17 15 14 13 12 13 16 15 14 15 17 17 17 15 14 15 12
1 2 3 1 2 2 2 3 4 5 5 3 3 4 3 1 5 7 8 9 9 9 8 6 5 6 9 11 10 9 11 10 10 15 20 21 21 21 20 18 16 16 15 15 15 16 15 15 14 13 12 13 15 15 14 16 16 15 15 15 14 14 13
0 3 3 2 1 3 3 3 5 5 3 4 5 1 3 2 5 8 8 8 9 10 9 8 10 12 12 12 11 10 10 10 11 15 18 19 19 19 18 17 14 14 14 14 14 14 14 13 13 13 12 12 13 14 14 15 14 13 14 15 14 14 14
2 2 1 3 4 5 3 3 2 0 2 4 4 4 4 4 5 7 6 6 8 12 12 11 11 12 11 11 11 10 9 9 11 15 17 19 19 18 16 15 13 13 13 13 13 13 13 13 13 13 13 13 13 15 15 15 14 13 14 14 14 14 15
2 4 4 4 4 4 1 5 5 3 4 4 5 6 6 5 4 4 6 7 7 10 13 12 10 10 10 10 10 9 8 8 11 14 16 18 18 16 14 13 12 12 12 12 12 11 11 12 12 13 14 15 16 17 17 15 15 16 15 14 13 14 15
1 2 2 1 3 3 4 5 4 5 6 5 5 7 6 5 5 5 6 8 7 8 11 11 9 8 9 9 9 8 8 8 11 15 17 17 16 15 13 12 11 10 10 9 8 9 11 12 12 13 14 16 17 18 16 16 16 17 16 16 15 15 15
2 2 2 0 3 5 6 6 5 6 6 4 4 6 6 5 7 7 7 8 8 8 9 10 9 9 10 10 9 8 7 8 11 15 16 15 15 15 14 13 11 10 8 7 7 9 12 12 12 13 14 15 16 16 16 16 17 16 16 16 17 16 15
2 1 3 2 2 2 3 5 4 5 6 6 5 6 6 6 7 7 8 9 7 6 7 9 9 9 10 11 10 8 7 9 12 14 15 16 17 16 15 13 10 8 7 7 9 10 11 11 12 13 14 14 14 14 15 17 18 17 17 17 17 16 15
1 2 3 3 4 4 7 6 2 1 4 6 7 7 7 8 8 8 8 9 9 9 8 9 9 9 9 10 10 8 7 9 12 14 16 18 18 17 14 11 8 8 9 10 11 11 10 10 11 12 12 12 13 13 15 17 18 18 18 18 17 16 15
0 3 2 1 4 3 3 5 5 4 1 4 8 9 8 9 9 9 8 8 10 12 12 12 12 9 7 10 13 11 9 12 14 16 18 19 18 16 12 9 9 10 12 11 11 10 9 9 10 10 9 11 12 12 14 17 18 19 19 19 18 17 17
4 5 5 2 4 4 1 2 5 5 5 4 4 5 6 8 9 11 10 8 7 8 10 15 16 11 9 13 16 12 11 16 18 18 20 20 17 14 12 11 12 14 12 11 10 10 8 8 8 8 9 11 12 12 13 15 17 18 19 19 19 19 18
3 3 4 2 4 3 1 1 4 5 6 6 5 5 3 1 3 7 10 11 9 7 7 13 20 20 17 18 18 15 14 17 19 20 21 20 16 13 13 14 15 14 12 10 9 8 8 8 8 8 9 10 11 12 14 15 15 16 18 18 19 19 19
3 4 5 3 4 2 2 1 3 4 5 5 4 3 4 4 4 1 5 9 12 13 9 10 17 24 23 21 20 19 18 18 19 21 21 17 15 16 16 17 16 14 11 10 8 7 7 7 7 9 9 9 11 14 16 15 14 16 17 17 18 19 19
Wind_Direction
142 152 173 131 117 161 296 48 156 211 218 142 123 129 120 115 100 61 84 111 106 110 50 356 30 79 75 82 85 69 60 111 124 111 84 82 87 88 81 96 114 324 330 63 150 166 179 180 177 177 179 181 184 185 187 189 191 193 196 198 200 202 203
259 170 137 101 98 122 104 86 229 248 315 102 114 104 103 92 83 71 87 122 140 157 143 318 114 107 93 74 66 52 40 89 128 124 110 105 97 100 105 118 158 256 320 28 87 127 164 177 180 182 182 184 186 187 188 189 190 192 196 198 200 202 203
293 12 98 104 356 53 123 166 199 81 76 48 2 126 143 103 104 142 18 51 141 222 173 180 170 132 115 96 87 79 58 73 108 114 111 111 101 98 110 114 122 347 9 49 89 111 135 152 168 182 185 185 186 188 189 190 192 194 196 198 200 203 204
135 18 70 162 310 359 75 71 20 67 139 159 182 188 153 123 128 155 114 2 288 252 195 186 184 146 126 118 111 104 86 73 81 99 106 105 94 82 82 82 78 71 66 72 82 88 103 114 129 165 181 186 188 189 189 190 192 192 193 196 200 203 206
101 48 301 167 155 63 57 50 18 318 323 156 186 292 109 119 136 153 135 111 258 256 49 110 144 125 111 106 97 91 84 73 63 66 85 94 90 79 68 70 81 88 90 87 70 64 82 98 109 138 166 179 187 190 188 187 187 187 190 194 198 202 205
98 197 227 166 147 149 134 136 192 205 204 141 91 315 325 106 122 146 146 147 159 26 51 66 63 114 104 102 100 87 72 67 62 55 67 78 83 84 76 69 71 75 79 85 91 96 102 107 110 124 147 163 176 184 186 186 186 188 190 192 194 200 204
189 228 243 109 110 117 120 129 165 171 159 130 134 187 227 79 85 93 99 109 105 56 32 330 241 127 113 109 109 100 82 70 67 60 66 69 70 79 79 68 56 59 76 87 93 101 111 118 122 126 136 149 159 166 173 183 188 190 190 189 188 193 200
336 347 8 22 30 58 73 48 5 340 163 126 133 163 146 106 105 110 91 88 113 102 101 266 118 114 115 112 106 102 94 83 72 60 62 66 66 69 74 73 60 54 70 88 92 92 98 108 113 118 127 138 139 135 144 177 191 191 189 189 189 190 195
9 19 29 1 346 31 73 322 342 339 109 113 104 82 81 80 85 119 116 115 125 144 146 135 91 122 119 110 105 102 100 97 88 73 66 66 68 67 65 72 71 60 57 67 82 84 78 77 86 101 115 126 134 146 162 179 197 203 195 193 197 200 200
118 124 77 303 289 316 331 334 30 30 71 103 116 103 75 84 100 83 100 122 116 133 150 147 165 138 123 118 116 106 102 104 101 95 86 75 70 67 61 57 64 71 64 54 66 73 66 60 65 80 97 109 117 127 139 144 168 210 216 205 204 207 211
159 173 211 239 210 102 32 31 38 40 61 87 107 106 98 135 121 73 75 138 133 146 162 149 144 135 127 130 126 114 112 111 104 99 93 86 79 71 65 60 57 65 69 60 59 63 62 59 59 65 76 89 102 108 113 122 140 173 207 218 212 206 208
188 170 151 6 61 82 77 64 40 31 68 85 76 96 139 142 112 89 171 149 138 152 165 147 142 136 127 132 132 127 133 127 114 103 93 89 87 79 73 71 67 66 67 63 59 60 63 65 64 66 69 71 83 95 103 114 130 148 168 189 199 203 206
357 76 51 42 60 65 60 61 51 50 89 99 87 113 150 143 121 142 168 155 141 150 155 147 151 147 139 143 140 135 140 133 119 108 96 88 83 78 74 70 70 71 70 67 62 58 60 64 67 70 73 74 78 81 86 97 110 127 152 168 174 182 192
11 21 33 41 60 56 40 40 42 58 80 90 94 106 109 97 112 132 137 133 133 141 146 150 153 147 140 139 134 130 129 121 112 106 100 93 83 74 69 64 61 60 63 70 68 61 55 57 61 65 72 79 83 78 77 85 90 96 117 137 135 122 126
0 5 18 26 56 65 47 28 25 52 75 79 89 101 97 95 108 121 122 121 120 114 126 133 130 122 121 124 127 126 121 113 109 103 100 96 88 77 69 61 55 51 55 66 71 68 61 59 62 69 76 81 81 76 71 76 82 84 89 94 93 92 94
335 341 3 11 55 64 42 20 9 28 82 100 110 122 124 122 124 124 123 126 136 134 124 116 112 114 114 117 119 116 114 115 112 107 103 100 92 84 73 61 56 52 53 62 70 72 69 65 67 74 85 91 87 79 73 71 75 77 75 76 79 83 88
308 323 353 13 55 52 21 342 328 334 81 99 109 127 133 135 137 139 144 149 150 142 128 117 116 118 117 120 123 120 120 117 110 109 108 103 97 91 80 69 59 53 56 63 67 71 71 68 68 71 80 89 90 83 76 70 69 69 67 67 69 71 76
295 313 351 35 52 52 270 270 273 206 144 122 122 134 136 133 126 117 121 128 134 136 127 122 124 124 123 130 131 129 128 120 113 113 110 106 103 95 83 75 61 55 63 67 65 68 73 72 70 70 74 80 85 80 74 71 70 68 64 62 62 61 61
229 321 27 56 59 220 245 291 326 135 135 120 108 106 113 116 110 108 116 125 131 130 124 123 123 119 119 120 116 118 122 120 118 116 114 113 110 101 93 82 63 62 72 73 67 71 78 76 72 71 70 73 79 77 70 66 65 63 60 56 53 53 52
67 13 57 103 211 252 294 335 4 60 102 108 100 73 40 99 117 120 124 129 128 124 122 122 121 118 111 98 93 113 121 119 120 120 121 119 115 115 110 85 70 73 80 79 75 77 80 77 73 72 69 67 70 72 69 64 59 55 52 47 44 44 45
102 98 71 71 236 318 337 334 327 350 122 130 123 104 46 88 118 121 123 128 130 126 122 123 122 114 101 81 69 98 109 108 111 115 118 119 117 114 100 81 75 78 78 78 80 79 76 72 70 70 70 68 66 66 66 61 55 50 46 41 37 36 35
70 94 64 25 58 57 277 274 285 298 140 134 118 111 109 195 143 134 133 136 137 133 133 137 136 117 99 92 97 106 103 102 103 107 110 108 104 99 90 83 79 77 74 73 76 75 70 66 65 65 68 67 63 60 58 52 47 43 38 34 30 28 27
36 88 98 95 140 197 238 254 288 321 123 119 97 99 133 243 178 145 141 145 148 150 152 149 142 126 114 129 159 140 114 108 108 109 106 99 94 89 86 85 81 77 75 72 68 65 61 58 58 60 64 63 56 51 49 47 42 35 28 23 20 16 16
20 92 101 110 184 221 238 248 288 304 118 93 80 104 205 249 219 168 154 153 155 155 149 141 139 143 143 153 171 155 120 109 107 110 108 102 97 91 87 86 83 78 75 69 63 60 57 55 55 55 58 59 52 44 41 38 32 24 19 17 13 9 5
19 89 101 4 252 248 259 265 288 305 38 70 86 175 221 236 204 175 153 148 151 146 140 139 143 145 133 135 143 130 112 104 101 103 102 99 97 93 89 88 85 80 75 70 66 61 58 58 57 53 54 54 48 42 36 29 20 13 11 11 7 6 6
7 103 103 33 291 271 267 281 322 17 63 97 189 216 245 176 147 142 130 134 139 132 129 129 122 114 112 117 122 116 109 108 104 101 100 97 94 92 89 86 83 80 76 72 67 62 58 59 56 51 53 51 44 40 34 23 13 6 7 7 1 360 4
59 64 72 90 219 263 292 335 354 23 88 187 208 128 31 57 113 110 109 123 130 124 118 117 120 120 117 117 118 113 110 112 108 104 103 101 97 93 89 83 79 77 73 65 59 55 49 49 50 47 48 47 42 38 30 18 9 3 2 1 354 352 355
92 80 140 188 209 252 288 85 109 31 114 162 163 107 73 65 81 91 98 107 119 124 124 121 120 120 119 121 121 117 115 115 109 106 105 104 100 95 89 83 75 70 66 58 52 47 39 36 37 39 42 43 39 32 23 15 10 5 1 358 353 351 352
162 172 204 214 218 250 4 94 128 129 92 98 120 112 96 79 74 88 101 99 104 116 120 120 119 120 123 125 123 121 122 118 111 108 108 107 103 96 89 86 80 72 66 56 46 39 34 34 36 37 38 37 31 23 14 9 7 3 1 1 358 355 352
337 115 120 144 150 126 81 79 96 106 102 104 107 103 102 104 104 106 111 115 117 118 120 121 124 127 129 126 123 123 121 115 112 112 112 112 110 105 101 99 94 86 75 60 45 40 38 37 34 28 25 22 18 11 5 2 1 357 356 358 357 355 351
67 70 11 321 164 148 115 97 83 79 89 103 113 118 129 133 125 123 124 125 122 119 124 130 133 136 135 130 128 128 124 122 123 122 123 125 123 118 117 114 107 98 84 66 60 57 47 36 26 18 11 8 6 2 360 0 358 355 354 353 349 348 346
131 207 302 307 168 145 90 99 112 110 106 100 96 112 126 127 125 129 131 129 125 122 129 133 132 134 136 135 135 134 129 132 134 132 133 133 128 124 123 120 112 102 94 87 81 71 55 38 23 12 7 5 2 360 1 2 359 355 355 354 346 340 338
48 330 345 36 76 38 10 10 9 163 141 125 114 114 117 119 122 126 127 129 130 130 130 129 127 130 134 134 134 133 132 136 140 140 137 134 132 129 126 122 117 110 107 103 92 77 61 41 22 14 13 11 3 359 2 3 359 355 355 353 348 344 338
324 264 282 111 119 101 4 355 355 346 16 124 131 133 131 130 133 133 129 126 128 133 135 133 130 134 144 142 138 139 148 151 147 143 139 135 133 133 132 130 126 117 111 106 95 80 62 40 26 24 22 12 2 360 2 0 357 357 357 353 349 348 344
208 222 236 218 133 136 183 346 9 12 31 74 110 137 147 153 153 146 139 133 132 143 148 145 141 143 152 152 147 146 154 155 149 145 144 142 139 141 145 139 126 115 109 104 93 77 60 45 41 40 27 13 6 3 357 351 349 353 357 355 349 346 344
182 214 220 175 118 136 212 13 35 25 36 55 49 31 36 78 163 160 156 153 152 158 165 158 154 153 152 153 153 151 155 156 152 148 149 149 147 148 145 134 123 116 109 100 85 68 61 58 52 41 27 16 10 2 353 346 345 351 357 354 348 345 344
161 205 206 153 124 174 262 44 59 25 21 44 49 22 6 359 350 274 197 173 160 159 165 166 161 158 156 156 155 155 158 159 153 149 149 150 150 146 137 129 124 119 109 97 84 74 74 67 44 31 25 17 8 2 357 354 352 354 357 354 348 346 346